FENGYUN 1C DEB, 31080

Orbit data source: Space-Track

FENGYUN 1C DEB, 31080 is space debris in SSO originally from a launch on Mon, 10 May 1999 UTC launched from the Taiyaun Space Center, China (TSC). Fengyun 1C debris stems from the Chinese weather satellite Fengyun-1C, which was intentionally destroyed by a Chinese anti-satellite missile in 2007. This event dramatically increased the amount of space debris, with thousands of trackable fragments posing hazards to satellites and human spaceflight. The Fengyun 1C debris cloud has become a focal point in discussions about space sustainability and the need for international regulations to prevent the creation of new debris.

Loading next visibility...
Identifier
31080, 1999-025BGA
Orbit
SSO
Country
Flag of CNCN / PRC
Related business
Manufacturer
Unknown
Mission
Spacecraft
Bus & Motor
Unknown
Mass
Unknown
Launch date (UTC)
1999-05-10 (27 years ago)
Launch vehicle
Unknown
Launch site
Taiyaun Space Center, China (TSC)
Object type
Payload
Rocket body
Debris
Shape & HBR
Unknown shape, 1.1 m
Radar Cross Section
Small (<0.1 m²)

Expand to show TLE details & history
Last TLE update: 2 months ago

TLE from 2 months ago
0 FENGYUN 1C DEB
1 31080U 99025BGA 26052.62681168  .00004734  00000-0  20150-2 0  9998
2 31080  99.1036 201.1556 0068715 250.3528 109.0224 14.24419695639634
Epoch: 2026-02-21T15:02Z
TLE epoch observation values (Epoch: 2026-02-21T15:02:36.529Z)
Latitude
-0.0001°
Longitude
-176.04328°
Altitude
829.758 km
Speed
7.43 km/s
True Right ascension
13h 24m 37s
True Declination
0° 00' 00"
Sunlit
Object was in full shadow at epoch
Visualization orbit readout
Latitude
Unknown
Longitude
Unknown
Altitude
Unknown
Speed
Unknown
Apparent Right ascension
Unknown
Apparent Declination
Unknown
Sunlit
N/A
Visualization observer readout
Local Sidereal Time
12:16:41
Azimuth
Unknown
Elevation
Unknown
Doppler factor
Unknown
Orbital elements
Apogee altitude
856.993 km
Perigee altitude
758.239 km
Semi-major axis
7,185.753 km
Eccentricity
0.00687
Inclination
99.1036°
RAAN
201.1556°
Arg. of periapsis
250.3528°
True anomaly
109.76472°
Mean anomaly
109.0224°
Eccentric anomaly
109.39377°
Mean motion
3.56316 °/min
Orbital period
101.03 mins
BSTAR
0.002015
Loading maneuver chart data...
Computing Atmospheric mass density...
Loading historical data...
Loading historical data...
Loading historical data...
Loading historical data...
Loading historical data...
Loading historical data...
Loading historical data...

Documentation

Showing up to 5 results
|